Location: Ku?niki
(51.4449°N, 17.8974°E)
Time: 22:35:43
(UTC+00:00)

EO-79 - Pass Details

Date: 03 July 2022
Orbit: 588 x 603 km, 98.0° (Epoch: 17 August)

Event Time Altitude Azimuth Distance (km) Brightness Sun altitude
Rises 23:49:25 0° 23° (NNE) 2,860 ? -14.6°
Reaches altitude 10° 23:51:52 10° 35° (NE) 1,955 ? -14.5°
Maximum altitude 23:55:31 27° 94° (E) 1,168 ? -14.4°
Enters shadow 23:58:36 13° 149° (SSE) 1,770 ? -14.3°
